Regional Weather Roundup
Issued by NWS

Home | Current Version | Previous Version | Text Only | Print | Product List | Glossary Off
Versions: 1 2 3 4 5 6 7 8 9 10 11 12 13 14 15 16 17 18 19 20 21 22 23 24 25 26 27 28 29 30 31 32 33 34 35 36 37 38 39 40 41 42 43 44 45 46 47 48 49 50

000
ASUS43 KMKX 180800
RWRWI

WISCONSIN REGIONAL WEATHER ROUNDUP
NATIONAL WEATHER SERVICE MILWAUKEE/SULLIVAN WI
300 AM CDT FRI AUG 18 2017

NOTE: "FAIR" INDICATES FEW OR NO CLOUDS BELOW 12,000 FEET WITH NO
SIGNIFICANT WEATHER AND/OR OBSTRUCTIONS TO VISIBILITY.

WIZ001-002-006>008-014>016-023>028-180900-
NORTHWEST WISCONSIN

CITY           SKY/WX    TMP DP  RH WIND       PRES   REMARKS
SUPERIOR ARPT    N/A     53  53 100 W5        29.79R FOG
ASHLAND        CLOUDY    62  59  90 NW6       29.75S
HAYWARD        CLOUDY    61  58  90 NW5       29.80R
SIREN          CLEAR     57  57  97 W6        29.84R
CUMBERLAND     PTCLDY    57  55  94 W6        29.83R
RICE LAKE      CLEAR     58  57  97 W6        29.83R
CHETEK         CLOUDY    62  60  93 NW6       29.81R
LADYSMITH      CLOUDY    63  60  91 W8        29.79S
EAU CLAIRE     NOT AVBL
MENOMONIE      CLEAR     63  59  87 W7        29.82R
NEW RICHMOND   CLEAR     59  58  98 W7        29.86R
OSCEOLA        CLEAR     58  58 100 W5        29.88R
$$

WIZ003>005-009-010-017-018-180900-
NORTH CENTRAL WISCONSIN

CITY           SKY/WX    TMP DP  RH WIND       PRES   REMARKS
MANITOWISH WTR DRIZZLE   59  59 100 NW9       29.72S
ARBOR VITAE    RAIN      60  59  95 NW9       29.72S
WOODRUFF       RAIN      60  59  95 NW9       29.72S
RHINELANDER    CLOUDY    60  60 100 NW9       29.72S
EAGLE RIVER    DRIZZLE   59  59 100 NW8       29.69S
LAND O LAKES   CLOUDY    60  59  97 NW7       29.71R FOG
PHILLIPS       CLOUDY    60  60  99 NW6       29.75S
TOMAHAWK       DRIZZLE   60  57  92 W6        29.73S
MEDFORD        CLOUDY    60  59  94 NW9       29.76S
MERRILL        CLOUDY    61  61 100 NW7       29.73S
$$

WIZ029-030-035-036-043>047-180900-
CENTRAL WISCONSIN

CITY           SKY/WX    TMP DP  RH WIND       PRES   REMARKS
WAUSAU         CLOUDY    62  60  93 NW12      29.72S
MOSINEE        CLOUDY    61  59  94 W14       29.75S
MARSHFIELD     CLOUDY    62  58  86 NW13G22   29.76R
STEVENS POINT  CLOUDY    61  61  99 NW7       29.74S
WAUPACA        CLOUDY    66  63  88 W7        29.72S
WAUTOMA        CLOUDY    65  61  87 W12       29.75
WISC RAPIDS    CLOUDY    63  61  93 NW8       29.77R
CAMP DOUGLAS   CLOUDY    64  60  86 NW10      29.79R
$$

WIZ011>013-019>022-031-037>040-048>050-180900-
NORTHEAST WISCONSIN

CITY           SKY/WX    TMP DP  RH WIND       PRES   REMARKS
ANTIGO         CLOUDY    59  59  97 NW10      29.71S
SHAWANO        PTCLDY    64  59  83 W9        29.67S
OCONTO         CLOUDY    63  59  88 W8        29.63R
STURGEON BAY   CLOUDY    65  60  84 W13G18    29.63R
GREEN BAY      MOCLDY    63  61  93 W9        29.67R
MANITOWOC      NOT AVBL
APPLETON       CLOUDY    63  55  77 W12G20    29.69S
CLINTONVILLE   CLEAR     63  57  82 W13G18    29.69S
OSHKOSH        LGT RAIN  64  61  90 W9        29.71R FOG
$$

WIZ032>034-041-042-053>061-180900-
SOUTHWEST WISCONSIN

CITY           SKY/WX    TMP DP  RH WIND       PRES   REMARKS
LA CROSSE      MOCLDY    69  63  81 NW6       29.81R
SPARTA         MOCLDY    63  59  87 W3        29.81S
VIROQUA        MOCLDY    64  63  99 W5        29.82S
BOSCOBEL       PTCLDY    67  63  87 SW5       29.82R
PRAIRIE DU CHI CLEAR     65  60  81 W5        29.82S
PLATTEVILLE    CLEAR     64  64 100 W7        29.83S
$$

WIZ056-057-062-063-064-067-068-180900-
SOUTH CENTRAL WISCONSIN

CITY           SKY/WX    TMP DP  RH WIND       PRES   REMARKS
REEDSBURG      CLOUDY    65  63  91 W9        29.79R
BARABOO/DELLS  CLOUDY    65  60  84 W7        29.79R
LONE ROCK      NOT AVBL
MINERAL POINT  MOCLDY    66  66 100 W7        29.82S
MADISON        CLOUDY    66  61  84 W7        29.78R
MIDDLETON      CLOUDY    66  65  96 W9        29.80R
WATERTOWN      CLOUDY    66  64  93 W8        29.76R
MONROE         CLOUDY    64  63  94 W8        29.80S
JANESVILLE     CLEAR     64  64 100 W8        29.78S
$$

WIZ051-052-058>065-066-070>072-180900-
SOUTHEAST WISCONSIN

CITY           SKY/WX    TMP DP  RH WIND       PRES   REMARKS
MILWAUKEE      CLOUDY    69  61  75 W13       29.73S
WAUKESHA       CLOUDY    63  59  88 W12G21    29.75S
MILWAUKEE/TIMM CLOUDY    66  57  72 W10G18    29.74R
RACINE         CLOUDY    68  62  81 W7        29.76R
KENOSHA        PTCLDY    66  61  84 W10       29.75S
FOND DU LAC    LGT RAIN  64  61  90 W9        29.73R
SHEBOYGAN      CLOUDY    66  62  87 W12G23    29.68S
WEST BEND      CLOUDY    63  61  94 W9G17     29.72R
JUNEAU         CLOUDY    64  61  88 W8        29.76R
$$

LSZ147-162-180900-
LAKE SUPERIOR

STATION/POSITION TIME  TEMP    WIND        PRES    WAVE
                       AIR SEA DIR/SP/G            HT/PER
                 (UTC) (F)     (DEG/KT/KT) (MB)    (FT/S)
W MID LAKE BUOY  0650   61 59  310/ 12/ 14 1004.9R   3/ 5
DEVILS ISLAND    0700   62     310/ 13/ 14 1006.7R
SAXON HARBOR     0730   64     310/ 11/ 14 1006.4S
$$

LMZ867-665-643>646-180900-
LAKE MICHIGAN

STATION/POSITION TIME  TEMP    WIND        PRES    WAVE
                       AIR SEA DIR/SP/G            HT/PER
                 (UTC) (F)     (DEG/KT/KT) (MB)    (FT/S)
S GREEN BAY BUOY 0730   66 71  260/ 16/ 19 1003.3R
N MID LAKE BUOY  0650   66 67  260/ 21/ 23 1000.1S   4/ 6
NORTHPORT PIER   0740   64     280/  8/ 13 1001.7S
KEWAUNEE LAKESHO 0730   66     280/  6/ 13 1002.9R
SHEBOYGAN LAKESH 0700   67     270/  9/ 11 1004.4R
PORT WASHINGTON  0740   68     280/  6/ 18 1006.8S
ATWATER BUOY     0609   69 69  270/ 14/ 17 1006.5
MILWAUKEE LAKESH 0730   69     270/  9/ 13   N/A
S MID LAKE BUOY  0650   70 71  300/ 19/ 23 1005.8F   5/ 5
KENOSHA   LAKESH 0700   69     270/ 10/ 14 1007.1
$$

TC  - TEMPERATURE IN CELSIUS
VSB - VISIBILITY IN STATUTE MILES
WCI - WIND CHILL INDEX
HX  - HEAT INDEX




USA.gov is the U.S. government's official web portal to all federal, state and local government web resources and services.